[[{"header":{"parameterUnit":"m.s-1","parameterCategory":1,"la1":30.2991,"la2":30.254,"lo1":-89.0895,"lo2":-89.0444,"dy":0.0017,"dx":0.0017,"nx":28,"ny":28,"refTime":"2023-09-27T21:00:00:Z","depth":0,"parameterNumber":2,"parameterNumberName":"U-component_of_WINDS"},"data":[0,0,0,0,0,0,0,0,0,0,0,0,0,0,0,0,0,0,0,0,0,0,0,0,0,0,0,0,0,0,0,0,0,0,0,0,0,0,0,0,0,0,0,0,0,0,0,0,0,0,0,0,0,0,0,0,0,0,-5.0156,-5.0157,0,-5.0177,-5.0177,-5.0177,-5.0064,-5.006,-5.0057,-5.0054,-5.0075,-5.0079,-5.0082,0,0,0,0,0,0,0,0,0,0,0,0,0,-5.002,-5.0023,-5.0156,-5.0157,-5.0157,-5.0177,-5.0177,-5.0177,-5.0064,-5.006,-5.0056,-5.0053,-5.0074,-5.0078,-5.0082,0,0,0,0,0,0,0,0,0,0,0,0,0,-5.0064,-5.0024,-5.0156,-5.0103,-5.0098,-5.0177,-5.0177,-5.0177,-5.0065,-5.006,-5.0055,-5.0051,-5.0072,-5.0078,-5.0083,-5.0214,0,0,-5.0099,-5.0102,0,0,0,0,0,0,0,0,-5.0062,-5.0069,-5.0111,-5.0107,-5.0102,-5.0113,-5.0136,-5.019,-5.0066,-5.0078,-5.0054,-5.0048,-5.0092,-5.0095,-5.0109,-5.0215,-5.0215,-5.01,-5.0103,-5.0105,-5.0107,0,0,0,0,0,0,0,-5.0059,-5.0067,-5.0164,-5.0111,-5.0106,-5.0078,-5.0079,-5.0146,-5.0112,-5.0076,-5.0068,-5.0072,-5.0088,-5.0105,-5.0109,-5.0216,-5.01,-5.0104,-5.0108,-5.011,-5.0431,-5.0436,0,0,0,0,0,0,-5.0063,-5.0066,-5.0164,-5.0165,-5.0069,-5.0085,-5.0085,-5.0114,-5.0111,-5.0105,-5.0076,-5.0067,-5.0098,-5.0103,-5.0109,-5.0263,-5.0105,-5.011,-5.0114,-5.0425,-5.0432,-5.0437,0,0,0,0,0,0,-5.006,-5.0073,-5.0163,-5.0113,-5.0123,-5.0092,-5.0125,-5.0117,-5.0133,-5.0111,-5.0104,-5.0099,-5.0094,-5.0102,-5.0189,-5.0262,-5.0113,-5.0118,-5.0419,-5.0427,-5.0435,-5.0572,0,0,0,0,0,0,-5.0057,-5.0072,-5.0122,-5.0115,-5.0126,-5.0242,-5.013,-5.0121,-5.0143,-5.0131,-5.0131,-5.0126,-5.0091,-5.0182,-5.0194,-5.0267,-5.0122,-5.0412,-5.0423,-5.0432,-5.0561,-5.0583,-5.0603,0,0,0,0,0,-5.0052,-5.0159,-5.0125,-5.0137,-5.0187,-5.0247,-5.0253,-5.0211,-5.0149,-5.0199,-5.0184,-5.0126,-5.0252,-5.0191,-5.0205,-5.028,-5.0407,-5.042,-5.0431,-5.0551,-5.0579,-5.0603,0,0,0,0,0,0,-5.0175,-5.0157,-5.0119,-5.0227,-5.0239,-5.0228,-5.0288,-5.0241,-5.0271,-5.0259,-5.0205,-5.0206,-5.0302,-5.0299,-5.0232,-5.0407,-5.0319,-5.0334,-5.0406,-5.0432,-5.0453,-5.0452,-5.0126,0,0,0,0,0,-5.0214,-5.0264,-5.0246,-5.0343,-5.0352,-5.032,-5.0344,-5.031,-5.0321,-5.0326,-5.0317,-5.033,-5.0373,-5.0402,-5.044,-5.0559,-5.0558,-5.0618,-5.0639,-5.0657,-5.0671,-5.0735,-5.0762,-5.0477,-5.0476,-5.0476,0,0,-5.0296,-5.0293,-5.0328,-5.0368,-5.0373,-5.0427,-5.0325,-5.0385,-5.0425,-5.0335,-5.0417,-5.0412,-5.0422,-5.0527,-5.0572,-5.0528,-5.075,-5.0672,-5.0686,-5.0691,-5.075,-5.0778,-5.0802,-5.0485,-5.0483,-5.0482,0,0,-5.0474,-5.0476,-5.0557,-5.0566,-5.0576,-5.0554,-5.0574,-5.0569,-5.0563,-5.0644,-5.0578,-5.0624,-5.0698,-5.0709,-5.0724,-5.0907,-5.0855,-5.0921,-5.1032,-5.1096,-5.1118,-5.1138,-5.1205,-5.1229,-5.0935,-5.0935,-5.0936,0,-5.0574,-5.0653,-5.0605,-5.0671,-5.0691,-5.0613,-5.0695,-5.0705,-5.0728,-5.0743,-5.0693,-5.0785,-5.0787,-5.0893,-5.0938,-5.0953,-5.0974,-5.0921,-5.1119,-5.1138,-5.1156,-5.1219,-5.1244,-5.0943,-5.0942,-5.0942,-5.0941,0,-5.0777,-5.0832,-5.0897,-5.0921,-5.0948,-5.1022,-5.0987,-5.102,-5.0984,-5.0968,-5.1052,-5.1052,-5.1089,-5.1111,-5.1076,-5.1213,-5.1186,-5.1128,-5.1039,-5.1192,-5.125,-5.1274,-5.0955,-5.0952,-5.095,-5.0948,0,0,-5.1032,-5.103,-5.1054,-5.1065,-5.1071,-5.1113,-5.1183,-5.122,-5.125,-5.1268,-5.1327,-5.1392,-5.1339,-5.1357,-5.1322,-5.1378,-5.1525,-5.1314,-5.1313,-5.1354,-5.1678,-5.1722,-5.175,-5.149,-5.1495,-5.1498,-5.1677,0,-5.1207,-5.1328,-5.1287,-5.141,-5.1462,-5.1388,-5.145,-5.1461,-5.1447,-5.1489,-5.1474,-5.1522,-5.1448,-5.1458,-5.151,-5.1496,-5.159,-5.1483,-5.1545,-5.1548,-5.1546,-5.1781,-5.1827,-5.1996,-5.1699,-5.1703,-5.1706,0,-5.1426,-5.1454,-5.1583,-5.1581,-5.1601,-5.1657,-5.1688,-5.1729,-5.174,-5.1726,-5.1747,-5.1701,-5.1771,-5.1681,-5.1777,-5.1706,-5.1729,-5.1726,-5.1732,-5.1737,-5.1637,-5.1793,-5.2049,-5.2075,-5.1741,-5.1738,-5.1736,0,-5.1602,-5.1671,-5.1757,-5.1768,-5.1768,-5.1809,-5.1811,-5.1817,-5.1842,-5.1869,-5.1885,-5.1919,-5.1939,-5.1967,-5.1933,-5.187,-5.2035,-5.1941,-5.2026,-5.2028,-5.2065,-5.2063,-5.2329,-5.2078,-5.2078,-5.2078,-5.2077,0,-5.1801,-5.1883,-5.1836,-5.1889,-5.1979,-5.1932,-5.2022,-5.2015,-5.2022,-5.2073,-5.2011,-5.206,-5.2011,-5.2056,-5.2029,-5.2114,-5.2123,-5.2114,-5.2107,-5.2121,-5.2122,-5.2136,-5.2124,-5.2084,-5.2083,-5.2081,-5.208,0,-5.2012,-5.1984,-5.2073,-5.2066,-5.2066,-5.2133,-5.2126,-5.2176,-5.2158,-5.2224,-5.2236,-5.2209,-5.2259,-5.2227,-5.2277,-5.2259,-5.237,-5.2346,-5.2367,-5.2361,-5.2448,-5.2441,-5.2733,-5.277,-5.2495,-5.2497,-5.2499,0,-5.2142,-5.2204,-5.2204,-5.2234,-5.224,-5.2288,-5.2314,-5.227,-5.2299,-5.2317,-5.2364,-5.2409,-5.2442,-5.2525,-5.251,-5.2549,-5.2525,-5.2625,-5.2531,-5.2543,-5.2528,-5.2526,-5.2532,-5.2645,-5.2648,-5.265,-5.2652,0,-5.2377,-5.236,-5.2399,-5.2434,-5.2466,-5.2491,-5.2511,-5.2539,-5.2495,-5.2531,-5.2581,-5.2608,-5.2659,-5.2705,-5.2737,-5.2739,-5.269,-5.2682,-5.2704,-5.272,-5.273,-5.2727,-5.2421,-5.2676,-5.2674,-5.2672,-5.2671,-5.267,-5.2552,-5.2604,-5.2612,-5.2658,-5.2669,-5.2689,-5.2735,-5.2724,-5.2765,-5.2804,-5.2776,-5.2836,-5.2846,-5.2885,-5.2893,-5.294,-5.29,-5.2931,-5.2939,-5.2948,-5.2961,-5.2722,-5.2946,-5.2945,-5.2944,-5.2944,-5.2943,0,-5.2784,-5.2786,-5.2829,-5.2859,-5.2896,-5.2846,-5.2865,-5.29,-5.2953,-5.2967,-5.3001,-5.306,-5.3104,-5.3093,-5.3133,-5.3173,-5.3151,-5.3185,-5.3182,-5.3184,-5.2994,-5.2972,-5.3202,-5.3202,-5.3202,-5.3202,-5.3202,-5.3201,-5.291,-5.2995,-5.2979,-5.307,-5.3071,-5.3129,-5.3145,-5.3164,-5.3175,-5.3244,-5.328,-5.3272,-5.3276,-5.3316,-5.3355,-5.335,-5.3368,-5.3411,-5.3399,-5.3222,-5.3197,-5.3172,-5.3151,-5.3415,-5.3415,-5.3584,-5.3586,-5.3587]},{"header":{"parameterUnit":"m.s-1","parameterCategory":1,"la1":30.2991,"la2":30.254,"lo1":-89.0895,"lo2":-89.0444,"dy":0.0017,"dx":0.0017,"nx":28,"ny":28,"refTime":"2023-09-27T21:00:00:Z","depth":0,"parameterNumber":3,"parameterNumberName":"V-component_of_WINDS"},"data":[0,0,0,0,0,0,0,0,0,0,0,0,0,0,0,0,0,0,0,0,0,0,0,0,0,0,0,0,0,0,0,0,0,0,0,0,0,0,0,0,0,0,0,0,0,0,0,0,0,0,0,0,0,0,0,0,0,0,-1.5318,-1.5317,0,-1.528,-1.5279,-1.5279,-1.5219,-1.5218,-1.5217,-1.5216,-1.5178,-1.5178,-1.5178,0,0,0,0,0,0,0,0,0,0,0,0,0,-1.534,-1.534,-1.5318,-1.5317,-1.5317,-1.528,-1.5279,-1.5279,-1.522,-1.5218,-1.5217,-1.5216,-1.5178,-1.5178,-1.5178,0,0,0,0,0,0,0,0,0,0,0,0,0,-1.5319,-1.534,-1.5318,-1.5283,-1.5279,-1.528,-1.5279,-1.5278,-1.522,-1.5218,-1.5217,-1.5215,-1.5178,-1.5178,-1.5178,-1.521,0,0,-1.5178,-1.5178,0,0,0,0,0,0,0,0,-1.532,-1.5318,-1.5289,-1.5285,-1.5281,-1.5253,-1.5273,-1.5256,-1.522,-1.5243,-1.5216,-1.5214,-1.5205,-1.5202,-1.5199,-1.5209,-1.5207,-1.5178,-1.5178,-1.5178,-1.5178,0,0,0,0,0,0,0,-1.5322,-1.5319,-1.5303,-1.5288,-1.5284,-1.5269,-1.5264,-1.5269,-1.5233,-1.524,-1.5236,-1.5232,-1.5202,-1.5199,-1.5197,-1.5206,-1.5178,-1.5178,-1.5178,-1.5178,-1.5239,-1.5241,0,0,0,0,0,0,-1.5328,-1.5321,-1.5304,-1.5302,-1.5297,-1.527,-1.5265,-1.5263,-1.5233,-1.5227,-1.5234,-1.523,-1.52,-1.5197,-1.5196,-1.523,-1.5178,-1.5178,-1.5178,-1.5238,-1.524,-1.5241,0,0,0,0,0,0,-1.5329,-1.5327,-1.5305,-1.531,-1.5306,-1.5271,-1.527,-1.5264,-1.526,-1.5228,-1.5221,-1.5237,-1.5198,-1.5196,-1.5207,-1.5228,-1.5178,-1.5178,-1.5236,-1.5238,-1.524,-1.5301,0,0,0,0,0,0,-1.533,-1.5328,-1.534,-1.5311,-1.5306,-1.5318,-1.5272,-1.5264,-1.526,-1.5254,-1.5229,-1.5223,-1.5197,-1.5207,-1.5207,-1.5227,-1.5178,-1.5234,-1.5237,-1.524,-1.5297,-1.5305,-1.5312,0,0,0,0,0,-1.5331,-1.5359,-1.5341,-1.5339,-1.532,-1.5319,-1.5316,-1.5285,-1.5262,-1.5274,-1.5252,-1.5224,-1.5226,-1.5209,-1.5208,-1.5229,-1.5232,-1.5236,-1.5239,-1.5293,-1.5303,-1.5312,0,0,0,0,0,0,-1.5392,-1.5355,-1.5334,-1.5354,-1.534,-1.5309,-1.5323,-1.5297,-1.529,-1.5285,-1.5247,-1.5241,-1.5257,-1.5244,-1.5226,-1.5257,-1.5224,-1.5228,-1.5266,-1.5275,-1.5283,-1.5286,-1.5178,0,0,0,0,0,-1.5408,-1.541,-1.5377,-1.5397,-1.5391,-1.5358,-1.5356,-1.5333,-1.5318,-1.5312,-1.5291,-1.5278,-1.5275,-1.5274,-1.527,-1.5294,-1.5287,-1.5308,-1.5316,-1.5322,-1.5326,-1.5337,-1.5346,-1.5253,-1.5253,-1.5253,0,0,-1.5441,-1.542,-1.5424,-1.5409,-1.5396,-1.5398,-1.5354,-1.5359,-1.536,-1.5313,-1.5322,-1.5306,-1.5288,-1.5306,-1.5312,-1.5295,-1.535,-1.5327,-1.5332,-1.5332,-1.5342,-1.535,-1.5358,-1.5256,-1.5255,-1.5255,0,0,-1.5502,-1.5487,-1.5502,-1.5489,-1.5469,-1.5446,-1.545,-1.5422,-1.541,-1.5418,-1.5382,-1.5383,-1.538,-1.5368,-1.5361,-1.5416,-1.5389,-1.5416,-1.5456,-1.5467,-1.5475,-1.5481,-1.55,-1.5508,-1.5419,-1.542,-1.542,0,-1.5546,-1.5548,-1.5513,-1.552,-1.5514,-1.547,-1.5484,-1.5473,-1.5453,-1.545,-1.5431,-1.5424,-1.5409,-1.5423,-1.5436,-1.5432,-1.5435,-1.5419,-1.5476,-1.5482,-1.5488,-1.5506,-1.5513,-1.5423,-1.5423,-1.5422,-1.5422,0,-1.5603,-1.5605,-1.5619,-1.56,-1.5595,-1.5606,-1.5572,-1.5572,-1.5549,-1.5528,-1.5537,-1.5516,-1.5507,-1.5508,-1.5486,-1.5519,-1.5508,-1.5483,-1.5449,-1.55,-1.5516,-1.5523,-1.5428,-1.5427,-1.5426,-1.5425,0,0,-1.5703,-1.5663,-1.5669,-1.5659,-1.5633,-1.5633,-1.5642,-1.5631,-1.5632,-1.5619,-1.5625,-1.5622,-1.5598,-1.559,-1.5566,-1.5576,-1.562,-1.5549,-1.5548,-1.5563,-1.5654,-1.5673,-1.5682,-1.5602,-1.5603,-1.5604,-1.5655,0,-1.576,-1.5771,-1.5739,-1.5759,-1.576,-1.5717,-1.5724,-1.5708,-1.5689,-1.5687,-1.5665,-1.5664,-1.5632,-1.5628,-1.5635,-1.5613,-1.5638,-1.5609,-1.5607,-1.5607,-1.5613,-1.5691,-1.5711,-1.5761,-1.5662,-1.5663,-1.5663,0,-1.5827,-1.5817,-1.5837,-1.5807,-1.5807,-1.5814,-1.5801,-1.58,-1.5781,-1.5766,-1.5757,-1.5728,-1.5734,-1.5701,-1.5708,-1.5689,-1.5686,-1.5675,-1.5676,-1.5675,-1.5639,-1.5692,-1.5777,-1.5784,-1.5673,-1.5672,-1.5672,0,-1.5899,-1.5889,-1.59,-1.5892,-1.5859,-1.5865,-1.5851,-1.5831,-1.5826,-1.5815,-1.5811,-1.5802,-1.5796,-1.5789,-1.5758,-1.5737,-1.5769,-1.5733,-1.5757,-1.5758,-1.5766,-1.5766,-1.5852,-1.5764,-1.5764,-1.5763,-1.5763,0,-1.5965,-1.5979,-1.5931,-1.5938,-1.5951,-1.5914,-1.5928,-1.591,-1.5892,-1.5894,-1.5856,-1.5859,-1.5818,-1.5816,-1.5792,-1.5801,-1.5799,-1.5787,-1.5781,-1.5791,-1.5792,-1.5789,-1.5785,-1.5765,-1.5765,-1.5765,-1.5764,0,-1.6048,-1.6016,-1.6025,-1.5992,-1.5984,-1.5995,-1.5967,-1.5971,-1.5949,-1.5952,-1.595,-1.5915,-1.5911,-1.5879,-1.5868,-1.5851,-1.587,-1.5856,-1.5876,-1.5872,-1.5897,-1.5895,-1.5984,-1.5993,-1.5899,-1.59,-1.5901,0,-1.6093,-1.6102,-1.607,-1.6068,-1.6056,-1.6054,-1.6048,-1.6011,-1.6007,-1.5985,-1.5993,-1.5985,-1.5977,-1.5972,-1.5945,-1.5936,-1.5922,-1.5954,-1.5921,-1.593,-1.5923,-1.5923,-1.5923,-1.5961,-1.5962,-1.5963,-1.5964,0,-1.6176,-1.6159,-1.6153,-1.6141,-1.6136,-1.6125,-1.6111,-1.6112,-1.607,-1.6068,-1.6063,-1.6056,-1.6044,-1.6036,-1.6022,-1.6008,-1.5979,-1.5974,-1.5979,-1.599,-1.6001,-1.5996,-1.5896,-1.5973,-1.5972,-1.5971,-1.5971,-1.5971,-1.6241,-1.6247,-1.6224,-1.6218,-1.6204,-1.6192,-1.6194,-1.6171,-1.6166,-1.6153,-1.6131,-1.6128,-1.6107,-1.6085,-1.6073,-1.6071,-1.6054,-1.6061,-1.6063,-1.6066,-1.6071,-1.6001,-1.6068,-1.6068,-1.6067,-1.6067,-1.6067,0,-1.6322,-1.6305,-1.63,-1.6281,-1.6276,-1.6248,-1.6232,-1.623,-1.6228,-1.6211,-1.6203,-1.6196,-1.6188,-1.6161,-1.615,-1.6153,-1.614,-1.6152,-1.6151,-1.6148,-1.6086,-1.6083,-1.6163,-1.6163,-1.6163,-1.6163,-1.6163,-1.6163,-1.6363,-1.6372,-1.6352,-1.6353,-1.6335,-1.6332,-1.6325,-1.6314,-1.63,-1.6294,-1.6287,-1.6268,-1.6246,-1.6234,-1.6225,-1.6217,-1.6215,-1.6231,-1.6219,-1.6162,-1.6153,-1.6144,-1.6141,-1.6231,-1.6231,-1.6281,-1.6282,-1.6282]}]]